{"data":{"norad_id":58633,"epoch":"2026-09-20T03:11:46.532544Z","epoch_age_seconds":181398,"freshness":"STALE","line1":"1 58633U 23203R   26263.13317746 -.00000466  00000+0 -74220-5 0  9993","line2":"2 58633  43.0034  52.8742 0000779 277.0422  83.0341 15.27577601154488","mean_motion":15.27577601,"eccentricity":7.79e-5,"inclination_deg":43.0034,"raan_deg":52.8742,"arg_perigee_deg":277.0422,"mean_anomaly_deg":83.0341,"bstar":-7.422e-6,"rev_number":15448,"period_min":94.26689675584,"perigee_km":482.52179256162,"apogee_km":483.59076647456,"semimajor_km":6861.1932795181,"source":"CELESTRAK","updated_at":"2026-09-21T09:00:33.939894Z"}}